�N����,����,�~����,�C��,���x,�C��,����,���ϕ���,�ő�u�ԕ���,�ő厞����,���˗�,�I�_���x,�n�����x,�ő啗���N��,DTYPE
"22/12/28","00:10",0.0,0.4,95.0,1019.0,298.2,1.3,1.8,327.2,0.00,-0.3,6.7,"00:08:08",1
"22/12/28","00:20",0.0,0.5,94.9,1019.2,300.5,0.8,1.6,318.0,0.00,-0.2,6.8,"00:10:08",1
"22/12/28","00:30",0.0,0.1,95.2,1019.2,301.1,1.3,1.8,314.2,0.00,-0.5,6.8,"00:26:16",1
"22/12/28","00:40",0.0,0.1,95.5,1019.0,334.1,1.5,2.1,336.3,0.00,-0.5,6.7,"00:34:32",1
"22/12/28","00:50",0.0,0.4,95.8,1019.2,335.2,1.5,2.5,338.5,0.00,-0.2,6.8,"00:40:32",1
"22/12/28","01:00",0.0,0.3,95.9,1018.7,220.0,0.5,1.3,272.9,0.00,-0.2,6.4,"00:50:08",1
"22/12/28","01:10",0.0,0.1,96.0,1018.7,317.2,1.0,1.7,330.6,0.00,-0.4,6.4,"01:06:16",1
"22/12/28","01:20",0.0,-0.1,96.2,1018.2,315.8,1.5,1.8,324.2,0.00,-0.6,6.7,"01:14:16",1
"22/12/28","01:30",0.0,-0.1,96.4,1018.2,263.0,0.5,1.4,310.7,0.00,-0.6,6.7,"01:29:44",1
"22/12/28","01:40",0.0,-0.5,96.7,1018.5,327.3,1.8,2.4,348.2,0.00,-0.9,6.6,"01:39:44",1
"22/12/28","01:50",0.0,-0.7,96.8,1018.2,297.5,1.2,1.9,348.1,0.00,-1.1,6.6,"01:40:08",1
"22/12/28","02:00",0.0,-0.5,97.0,1018.0,294.4,1.5,1.9,315.3,0.00,-0.9,6.5,"01:57:44",1
"22/12/28","02:10",0.0,-0.4,97.1,1018.0,290.0,0.8,1.4,294.6,0.00,-0.8,6.3,"02:08:32",1
"22/12/28","02:20",0.0,-0.3,97.2,1018.0,309.7,1.5,2.0,314.3,0.00,-0.6,6.4,"02:14:00",1
"22/12/28","02:30",0.0,-0.4,97.4,1018.0,148.4,0.7,1.9,318.7,0.00,-0.7,6.3,"02:20:32",1
"22/12/28","02:40",0.0,-0.4,97.4,1018.2,321.1,1.3,2.2,337.1,0.00,-0.7,6.4,"02:30:02",1
"22/12/28","02:50",0.0,-0.8,97.6,1018.0,325.9,1.7,2.2,335.8,0.00,-1.1,6.3,"02:40:40",1
"22/12/28","03:00",0.0,-1.0,97.8,1017.8,292.5,1.2,1.8,312.0,0.00,-1.3,6.3,"02:54:32",1
"22/12/28","03:10",0.0,-0.9,98.0,1018.0,318.1,1.6,2.5,321.7,0.00,-1.1,6.2,"03:06:48",1
"22/12/28","03:20",0.0,-0.8,97.4,1018.0,305.0,1.3,1.7,308.8,0.00,-1.1,6.2,"03:18:00",1
"22/12/28","03:30",0.0,-0.4,98.1,1018.0,307.6,1.7,2.5,313.4,0.00,-0.6,6.2,"03:29:52",1
"22/12/28","03:40",0.0,-0.1,97.5,1018.2,303.5,1.7,2.2,321.1,0.00,-0.4,6.1,"03:30:16",1
"22/12/28","03:50",0.0,-0.3,98.1,1018.0,311.0,1.6,1.9,321.9,0.00,-0.5,6.2,"03:49:28",1
"22/12/28","04:00",0.0,-0.2,97.6,1018.2,313.1,1.2,1.9,298.9,0.00,-0.5,6.0,"03:51:36",1
"22/12/28","04:10",0.0,-0.2,98.3,1018.2,303.3,1.6,2.0,312.1,0.00,-0.4,5.9,"04:08:16",1
"22/12/28","04:20",0.0,0.1,97.7,1018.2,297.6,1.5,2.1,323.2,0.00,-0.2,6.1,"04:18:40",1
"22/12/28","04:30",0.0,-1.0,98.3,1018.0,321.9,1.5,1.9,322.4,0.00,-1.2,5.9,"04:24:40",1
"22/12/28","04:40",0.0,-1.2,97.9,1018.0,299.9,1.2,1.8,316.1,0.00,-1.4,5.9,"04:30:16",1
"22/12/28","04:50",0.0,-1.4,98.7,1017.5,306.9,1.0,1.9,316.2,0.00,-1.5,5.9,"04:48:08",1
"22/12/28","05:00",0.0,-1.1,98.2,1017.8,324.9,1.3,1.6,327.0,0.00,-1.3,5.9,"04:50:24",1
"22/12/28","05:10",0.0,-1.0,98.2,1017.8,308.1,1.0,1.6,310.9,0.00,-1.2,5.8,"05:00:40",1
"22/12/28","05:20",0.0,-0.8,98.2,1018.0,321.2,1.3,1.9,324.0,0.00,-1.0,6.0,"05:10:24",1
"22/12/28","05:30",0.0,-0.9,98.2,1018.5,315.1,1.1,1.9,316.8,0.00,-1.1,5.8,"05:23:52",1
"22/12/28","05:40",0.0,-0.9,98.2,1018.0,306.4,0.8,1.6,326.0,0.00,-1.1,5.7,"05:32:08",1
"22/12/28","05:50",0.0,-0.9,98.2,1018.5,315.5,0.7,1.1,273.0,0.00,-1.1,5.6,"05:40:02",1
"22/12/28","06:00",0.0,-1.4,98.3,1018.2,256.2,0.7,1.2,266.3,0.00,-1.6,5.7,"05:50:48",1
"22/12/28","06:10",0.0,-1.4,98.5,1018.5,273.1,0.7,1.1,266.1,0.00,-1.6,5.7,"06:01:12",1
"22/12/28","06:20",0.0,-1.5,98.5,1018.7,319.2,1.5,2.0,324.0,0.00,-1.7,5.6,"06:15:36",1
"22/12/28","06:30",0.0,-1.4,98.5,1019.0,307.9,1.2,1.7,339.8,0.00,-1.6,5.7,"06:22:24",1
"22/12/28","06:40",0.0,-1.6,98.6,1018.7,282.5,0.8,1.2,310.1,0.00,-1.8,5.5,"06:39:24",1
"22/12/28","06:50",0.0,-1.6,98.5,1018.7,292.1,0.8,1.3,310.9,0.00,-1.8,5.7,"06:45:34",1
"22/12/28","07:00",0.0,-1.7,98.7,1018.7,309.6,1.5,1.7,316.1,0.00,-1.8,5.3,"06:52:56",1
"22/12/28","07:10",0.0,-1.6,98.7,1018.7,293.0,0.8,1.2,307.0,0.00,-1.7,5.6,"07:02:10",1
"22/12/28","07:20",0.0,-1.5,98.7,1018.5,286.4,0.6,1.0,319.5,0.00,-1.6,5.5,"07:17:16",1
"22/12/28","07:30",0.0,-1.7,98.7,1018.2,266.9,0.5,0.6,262.9,0.00,-1.8,5.6,"07:24:20",1
"22/12/28","07:40",0.0,-1.7,98.8,1018.5,305.7,1.1,1.4,314.7,0.00,-1.8,5.3,"07:32:28",1
"22/12/28","07:50",0.0,-1.9,98.7,1018.2,268.2,0.7,0.9,267.9,0.00,-2.0,5.7,"07:40:32",1
"22/12/28","08:00",0.0,-1.9,99.0,1017.8,306.2,1.3,1.4,313.2,0.00,-2.0,5.6,"07:59:58",1
"22/12/28","08:10",0.0,-1.6,99.0,1018.2,299.6,1.0,1.6,317.9,0.00,-1.7,5.4,"08:00:08",1
"22/12/28","08:20",0.0,-1.1,99.0,1018.0,285.2,1.0,2.5,311.2,0.00,-1.2,5.1,"08:19:52",1
"22/12/28","08:30",0.0,-0.5,98.9,1018.2,313.5,2.1,2.7,313.2,0.02,-0.6,5.3,"08:20:48",1
"22/12/28","08:40",0.0,-0.2,98.9,1018.5,240.1,0.5,1.6,313.9,0.03,-0.3,5.2,"08:30:16",1
"22/12/28","08:50",0.0,0.3,98.8,1018.2,287.6,0.8,1.3,300.3,0.04,0.2,5.2,"08:48:02",1
"22/12/28","09:00",0.0,0.7,98.9,1019.0,312.9,1.2,1.9,322.5,0.04,0.6,5.3,"08:52:08",1
"22/12/28","09:10",0.2,1.5,98.7,1018.7,268.3,0.6,0.9,249.9,0.07,1.4,5.2,"09:04:00",1
"22/12/28","09:20",0.0,2.3,98.5,1019.0,288.6,0.7,1.4,312.4,0.09,2.1,5.2,"09:11:12",1
"22/12/28","09:30",0.0,2.4,98.6,1019.7,165.4,0.5,0.9,145.3,0.11,2.2,5.2,"09:23:44",1
"22/12/28","09:40",0.0,3.3,98.4,1019.9,201.0,0.6,0.8,162.0,0.14,3.1,5.3,"09:30:48",1
"22/12/28","09:50",0.0,3.7,98.3,1020.4,145.8,0.3,1.0,343.6,0.16,3.5,5.2,"09:49:12",1
"22/12/28","10:00",0.0,3.9,97.9,1019.9,124.4,0.6,1.2,122.6,0.18,3.6,5.4,"09:54:56",1
"22/12/28","10:10",0.0,4.4,98.0,1020.6,164.3,0.6,0.9,133.9,0.20,4.2,5.3,"10:00:38",1
"22/12/28","10:20",0.0,5.4,97.2,1020.6,274.0,0.5,0.9,284.2,0.24,5.0,5.4,"10:14:28",1
"22/12/28","10:30",0.0,5.6,96.7,1020.8,247.9,0.8,1.7,289.6,0.28,5.2,5.3,"10:24:08",1
"22/12/28","10:40",0.0,6.0,96.2,1020.6,250.1,0.5,1.4,199.2,0.24,5.5,5.3,"10:34:40",1
"22/12/28","10:50",0.0,6.4,94.9,1020.4,222.6,0.8,1.7,195.7,0.29,5.7,5.2,"10:48:48",1
"22/12/28","11:00",0.0,6.8,93.0,1020.1,238.8,0.6,1.4,221.4,0.31,5.8,5.4,"10:59:38",1
"22/12/28","11:10",0.0,6.5,90.6,1020.1,238.3,0.7,1.3,301.3,0.15,5.1,5.4,"11:01:14",1
"22/12/28","11:20",0.0,7.4,87.7,1020.1,248.2,0.8,2.2,245.1,0.32,5.5,5.4,"11:17:04",1
"22/12/28","11:30",0.0,7.9,82.2,1020.4,251.6,0.8,2.5,224.7,0.31,5.1,5.5,"11:27:36",1
"22/12/28","11:40",0.0,8.3,77.9,1020.1,165.7,0.5,0.9,139.6,0.34,4.7,5.6,"11:31:48",1
"22/12/28","11:50",0.0,8.8,74.1,1020.6,181.0,0.7,1.6,90.8,0.38,4.5,5.7,"11:47:18",1
"22/12/28","12:00",0.0,8.8,71.4,1020.4,177.6,1.3,2.1,142.7,0.27,4.0,5.8,"11:54:00",1
"22/12/28","12:10",0.0,8.6,70.8,1020.4,237.4,1.0,1.8,261.5,0.15,3.6,5.8,"12:09:48",1
"22/12/28","12:20",0.0,9.5,70.0,1019.9,253.6,1.1,1.7,218.0,0.37,4.3,5.9,"12:12:54",1
"22/12/28","12:30",0.0,10.1,67.4,1019.7,214.5,1.0,2.1,160.8,0.41,4.4,5.9,"12:25:44",1
"22/12/28","12:40",0.0,10.4,65.1,1019.0,228.1,1.0,2.0,219.8,0.39,4.2,6.1,"12:36:00",1
"22/12/28","12:50",0.0,10.9,65.1,1019.0,211.2,0.8,2.0,133.0,0.39,4.6,6.3,"12:40:56",1
"22/12/28","13:00",0.0,11.0,63.9,1019.2,214.6,1.5,3.2,234.0,0.39,4.5,6.3,"12:54:16",1
"22/12/28","13:10",0.0,11.0,62.6,1019.0,213.9,1.8,3.5,230.0,0.39,4.2,6.3,"13:01:36",1
"22/12/28","13:20",0.0,11.0,62.0,1018.7,207.8,2.0,3.9,216.4,0.38,4.0,6.3,"13:16:56",1
"22/12/28","13:30",0.0,11.1,61.9,1018.5,201.5,2.3,4.5,232.8,0.37,4.1,6.6,"13:21:40",1
"22/12/28","13:40",0.0,10.9,61.5,1018.2,181.0,2.1,3.9,219.5,0.37,3.8,6.5,"13:32:50",1
"22/12/28","13:50",0.0,11.3,60.7,1018.0,168.4,1.7,2.7,160.1,0.35,4.0,6.8,"13:49:18",1
"22/12/28","14:00",0.0,11.5,60.1,1018.0,172.2,1.7,3.3,131.2,0.34,4.1,6.8,"13:58:28",1
"22/12/28","14:10",0.0,11.6,59.7,1017.8,157.2,1.7,3.7,153.3,0.33,4.1,7.0,"14:07:48",1
"22/12/28","14:20",0.0,11.7,58.7,1017.8,179.7,1.8,4.3,199.2,0.30,3.9,6.8,"14:11:16",1
"22/12/28","14:30",0.0,11.8,56.9,1017.5,174.6,1.5,2.9,195.1,0.28,3.6,7.1,"14:25:46",1
"22/12/28","14:40",0.0,12.1,56.5,1017.3,172.7,1.2,2.8,185.0,0.26,3.8,7.1,"14:34:38",1
"22/12/28","14:50",0.0,12.1,55.6,1017.5,176.5,1.2,2.9,114.9,0.23,3.5,7.3,"14:46:16",1
"22/12/28","15:00",0.0,12.2,55.4,1017.3,42.1,0.8,2.2,105.8,0.20,3.6,7.2,"14:55:36",1
"22/12/28","15:10",0.0,12.6,56.6,1017.1,236.4,1.1,2.2,199.0,0.24,4.3,7.2,"15:07:20",1
"22/12/28","15:20",0.0,12.9,56.0,1017.1,213.6,1.2,2.9,224.5,0.23,4.4,7.3,"15:18:08",1
"22/12/28","15:30",0.0,12.7,56.1,1017.1,173.7,1.5,3.5,243.8,0.20,4.2,7.5,"15:28:56",1
"22/12/28","15:40",0.0,12.6,56.0,1016.8,162.6,1.2,3.2,104.3,0.17,4.1,7.6,"15:39:36",1
"22/12/28","15:50",0.0,12.4,56.3,1017.3,189.6,1.7,3.2,218.4,0.13,4.0,7.5,"15:43:14",1
"22/12/28","16:00",0.0,11.7,58.0,1017.1,177.3,1.6,3.2,146.3,0.06,3.8,7.6,"15:55:54",1
"22/12/28","16:10",0.0,11.5,59.5,1017.1,238.2,1.3,2.5,237.9,0.04,3.9,7.8,"16:02:08",1
"22/12/28","16:20",0.0,11.6,59.9,1017.1,255.3,1.7,2.6,250.5,0.06,4.1,7.7,"16:12:12",1
"22/12/28","16:30",0.0,11.8,59.5,1016.8,281.5,2.2,4.2,297.3,0.06,4.2,7.6,"16:25:52",1
"22/12/28","16:40",0.0,11.3,61.3,1017.1,251.0,1.6,2.9,263.4,0.02,4.2,7.9,"16:39:38",1
"22/12/28","16:50",0.0,11.1,61.4,1017.1,255.1,2.8,4.0,242.7,0.02,4.0,8.0,"16:43:08",1
"22/12/28","17:00",0.0,10.9,61.6,1017.3,266.8,2.2,3.5,269.8,0.01,3.9,7.8,"16:51:28",1
"22/12/28","17:10",0.0,10.7,62.4,1017.3,263.7,2.3,4.2,248.8,0.00,3.9,7.8,"17:03:28",1
"22/12/28","17:20",0.0,10.4,63.5,1017.1,268.0,1.7,2.5,252.3,0.00,3.8,7.9,"17:11:56",1
"22/12/28","17:30",0.0,10.1,65.8,1017.1,307.3,1.5,2.0,321.8,0.00,4.0,8.0,"17:28:54",1
"22/12/28","17:40",0.0,9.3,69.0,1017.3,306.9,1.6,2.2,324.0,0.00,4.0,7.9,"17:39:44",1
"22/12/28","17:50",0.0,8.7,71.1,1017.5,315.3,1.8,2.9,341.3,0.00,3.8,8.0,"17:41:36",1
"22/12/28","18:00",0.0,8.2,72.9,1016.8,297.9,1.8,2.4,314.6,0.00,3.7,8.0,"17:54:48",1
"22/12/28","18:10",0.0,7.7,73.8,1017.5,293.9,1.7,2.0,314.2,0.00,3.4,7.7,"18:03:28",1
"22/12/28","18:20",0.0,7.5,75.6,1017.3,284.6,2.2,2.5,305.6,0.00,3.5,7.8,"18:11:12",1
"22/12/28","18:30",0.0,7.2,77.1,1017.3,288.8,2.1,2.4,265.9,0.00,3.5,8.0,"18:20:32",1
"22/12/28","18:40",0.0,6.8,78.5,1017.3,302.6,2.0,2.2,311.3,0.00,3.4,8.0,"18:31:52",1
"22/12/28","18:50",0.0,6.4,79.8,1017.5,317.2,2.2,2.8,323.4,0.00,3.2,7.7,"18:42:48",1
"22/12/28","19:00",0.0,6.1,81.5,1018.0,297.7,1.8,2.2,310.5,0.00,3.2,7.7,"18:53:04",1
"22/12/28","19:10",0.0,6.0,83.3,1018.0,316.6,2.2,3.6,314.9,0.00,3.4,7.7,"19:00:02",1
"22/12/28","19:20",0.0,5.9,84.3,1018.0,302.3,1.8,3.2,317.9,0.00,3.5,7.8,"19:11:44",1
"22/12/28","19:30",0.0,5.7,85.1,1017.8,307.2,1.3,1.9,314.9,0.00,3.4,7.6,"19:22:00",1
"22/12/28","19:40",0.0,5.3,85.7,1017.5,302.3,1.5,2.0,323.0,0.00,3.1,7.6,"19:36:58",1
"22/12/28","19:50",0.0,5.3,86.6,1017.5,322.9,1.7,2.2,325.2,0.00,3.3,7.8,"19:49:04",1
"22/12/28","20:00",0.0,5.1,87.2,1017.8,320.9,1.7,2.2,319.4,0.00,3.2,7.5,"19:52:56",1
"22/12/28","20:10",0.0,4.8,87.7,1017.3,294.4,1.1,1.7,309.1,0.00,3.0,7.7,"20:01:36",1
"22/12/28","20:20",0.0,4.8,88.3,1017.5,298.4,1.5,2.0,314.0,0.00,3.1,7.7,"20:16:20",1
"22/12/28","20:30",0.0,4.7,88.8,1017.5,302.9,1.6,2.1,312.0,0.00,3.1,7.4,"20:25:22",1
"22/12/28","20:40",0.0,4.5,89.2,1017.5,293.4,1.3,2.0,293.5,0.00,2.9,7.6,"20:38:02",1
"22/12/28","20:50",0.0,4.6,89.6,1017.5,281.5,1.5,1.9,304.6,0.00,3.1,7.6,"20:44:04",1
"22/12/28","21:00",0.0,4.5,89.9,1017.5,291.3,1.5,2.1,319.6,0.00,3.0,7.4,"20:58:26",1
"22/12/28","21:10",0.0,4.4,90.1,1017.8,286.1,1.7,3.3,330.7,0.00,3.0,7.3,"21:01:04",1
"22/12/28","21:20",0.0,3.9,90.4,1017.5,318.3,1.7,1.9,331.3,0.00,2.5,7.4,"21:11:04",1
"22/12/28","21:30",0.0,3.4,90.9,1017.3,324.8,1.6,1.6,324.8,0.00,2.1,7.2,"21:21:08",1
"22/12/28","21:40",0.0,3.3,91.3,1017.3,337.6,1.7,1.7,328.4,0.00,2.1,7.5,"21:36:52",1
"22/12/28","21:50",0.0,3.1,91.8,1017.5,317.7,2.0,2.0,311.4,0.00,1.9,7.2,"21:47:14",1
"22/12/28","22:00",0.0,3.3,92.2,1017.3,286.4,1.7,2.0,312.6,0.00,2.2,7.3,"21:59:48",1
"22/12/28","22:10",0.0,3.3,92.5,1017.5,301.2,1.8,2.2,305.8,0.00,2.2,7.2,"22:09:36",1
"22/12/28","22:20",0.0,3.3,92.8,1017.5,305.6,1.8,2.5,317.8,0.00,2.3,7.1,"22:15:02",1
"22/12/28","22:30",0.0,3.4,93.0,1017.8,285.7,1.6,1.9,315.1,0.00,2.4,7.3,"22:26:56",1
"22/12/28","22:40",0.0,3.3,93.3,1018.0,282.8,1.2,1.3,300.0,0.00,2.4,7.2,"22:31:12",1
"22/12/28","22:50",0.0,3.5,93.6,1018.2,306.7,1.8,2.6,325.6,0.00,2.6,7.2,"22:47:44",1
"22/12/28","23:00",0.0,3.8,93.6,1018.5,309.4,2.5,3.4,329.9,0.00,2.9,7.0,"22:52:38",1
"22/12/28","23:10",0.0,4.1,93.6,1018.7,323.3,2.5,3.9,330.7,0.00,3.2,7.1,"23:05:38",1
"22/12/28","23:20",0.0,4.1,93.5,1018.5,293.8,1.0,1.6,268.7,0.00,3.2,7.0,"23:10:28",1
"22/12/28","23:30",0.0,4.2,93.6,1019.0,300.5,1.6,3.7,315.4,0.00,3.3,6.9,"23:28:04",1
"22/12/28","23:40",0.0,4.4,93.3,1019.0,318.9,2.2,4.9,327.5,0.00,3.5,7.2,"23:31:06",1
"22/12/28","23:50",0.0,4.3,93.3,1018.7,331.5,1.8,3.3,345.6,0.00,3.4,6.9,"23:43:04",1
"22/12/28","24:00",0.0,4.2,93.2,1018.5,328.8,2.6,4.4,342.1,0.00,3.2,7.0,"23:54:46",1
